Weather History for Pottstown, PA

Change the Weather History Date:

Thursday, March 6, 2014

  Actual Average (KRDG) Record (KRDG)
Temperature  
Mean Temperature 22 °F 38 °F  
Max Temperature 28 °F 47 °F 67 °F (1976)
Min Temperature 16 °F 28 °F 7 °F (1978)
Degree Days  
Heating Degree Days 43 27  
Month to date heating degree days 169  
Since 1 July heating degree days 4211  
Cooling Degree Days 0 0  
Month to date cooling degree days 0  
Year to date cooling degree days 0  
Moisture  
Dew Point 6 °F    
Average Humidity 51    
Maximum Humidity 71    
Minimum Humidity 34    
Precipitation  
Precipitation 0.00 in 0.10 in 2.16 in (1920)
Month to date precipitation 0.52  
Year to date precipitation 6.05  
Sea Level Pressure  
Sea Level Pressure 30.53 in    
Wind  
Wind Speed 7 mph (ENE)    
Max Wind Speed 12 mph    
Max Gust Speed -    
Visibility 10 miles    
Events      
T = Trace of Precipitation, MM = Missing Value Source: NWS Daily Summary

Daily Weather History Graph

Daily Weather History Graph

Search for Another Location

Airport:

Trip Planner

Search our weather history database for the weather conditions in past years. The results will help you decide how hot, cold, wet, or windy it might be!

Date:

Astronomy

Mar. 06, 2014 Rise Set
Actual Time 6:28 AM EST 5:59 PM EST
Civil Twilight 6:00 AM EST 6:26 PM EST
Nautical Twilight 5:29 AM EST 6:58 PM EST
Astronomical Twilight 4:57 AM EST 7:29 PM EST
Moon 9:33 AM EST (3/6) No Moon Set
Length of Visible Light 12h 25m
Length of Day
11h 31m
Waxing Crescent, 32% of the Moon is Illuminated
Mar 6
Waxing Crescent
Mar 8
First Quarter
Mar 16
Full
Mar 23
Last Quarter
Mar 30
New

Hourly Weather History & Observations

Time (EST) Temp. Windchill Dew Point Humidity Pressure Visibility Wind Dir Wind Speed Gust Speed Precip Events Conditions
12:54 AM 21.0 °F 11.4 °F 9.0 °F 60% 30.47 in 10.0 mi North 8.1 mph - N/A   Clear
1:54 AM 19.9 °F 12.1 °F 9.0 °F 62% 30.48 in 10.0 mi North 5.8 mph - N/A   Clear
2:54 AM 19.0 °F 11.1 °F 9.0 °F 65% 30.49 in 10.0 mi NNE 5.8 mph - N/A   Clear
3:54 AM 19.0 °F 10.0 °F 8.1 °F 62% 30.50 in 10.0 mi NNE 6.9 mph - N/A   Clear
4:54 AM 18.0 °F 5.4 °F 3.9 °F 54% 30.53 in 10.0 mi NE 11.5 mph - N/A   Clear
5:54 AM 17.1 °F 6.6 °F 3.9 °F 56% 30.54 in 10.0 mi ENE 8.1 mph - N/A   Clear
6:54 AM 16.0 °F 7.4 °F 3.0 °F 57% 30.57 in 10.0 mi NNE 5.8 mph - N/A   Clear
7:54 AM 17.1 °F 6.6 °F -0.0 °F 47% 30.59 in 10.0 mi NE 8.1 mph - N/A   Clear
8:54 AM 19.0 °F 10.0 °F 1.0 °F 46% 30.63 in 10.0 mi NE 6.9 mph - N/A   Clear
9:54 AM 19.9 °F 13.4 °F -0.0 °F 42% 30.63 in 10.0 mi ENE 4.6 mph - N/A   Clear
10:54 AM 21.9 °F 12.5 °F -0.0 °F 38% 30.61 in 10.0 mi ENE 8.1 mph - N/A   Clear
11:54 AM 24.1 °F 15.2 °F 1.9 °F 38% 30.60 in 10.0 mi ENE 8.1 mph - N/A   Clear
12:54 PM 25.0 °F 18.1 °F 1.9 °F 37% 30.57 in 10.0 mi East 5.8 mph - N/A   Clear
1:54 PM 28.0 °F 21.7 °F 3.0 °F 34% 30.54 in 10.0 mi NE 5.8 mph - N/A   Clear
2:54 PM 28.0 °F 22.8 °F 3.0 °F 34% 30.52 in 10.0 mi Variable 4.6 mph - N/A   Clear
3:54 PM 28.0 °F 20.8 °F 3.9 °F 36% 30.51 in 10.0 mi ENE 6.9 mph - N/A   Clear
4:54 PM 28.9 °F 22.8 °F 7.0 °F 40% 30.51 in 10.0 mi East 5.8 mph - N/A   Clear
5:54 PM 28.0 °F 24.2 °F 8.1 °F 43% 30.52 in 10.0 mi East 3.5 mph - N/A   Clear
6:54 PM 27.0 °F 23.0 °F 8.1 °F 45% 30.52 in 10.0 mi ENE 3.5 mph - N/A   Clear
7:54 PM 26.1 °F 20.5 °F 10.0 °F 51% 30.51 in 10.0 mi East 4.6 mph - N/A   Clear
8:54 PM 25.0 °F 19.3 °F 14.0 °F 63% 30.51 in 10.0 mi East 4.6 mph - N/A   Clear
9:54 PM 24.1 °F 18.2 °F 16.0 °F 71% 30.50 in 10.0 mi East 4.6 mph - N/A   Clear
10:54 PM 24.1 °F 15.2 °F 14.0 °F 65% 30.48 in 10.0 mi East 8.1 mph - N/A   Clear
11:54 PM 23.0 °F 18.4 °F 14.0 °F 68% 30.46 in 10.0 mi East 3.5 mph - N/A   Clear